FDX59 EKBI-ENZV

Flight info

Callsign FDX59
Flight time 0h 46m
Altitude 30000
Route RERPA DCT RIVEX
Aircraft B738/M-L/C

Departure

Time 2026-03-25 14:23
Airport Billund Airport (EKBI)

Arrival

Time 2026-03-25 15:09
Airport Stavanger Airport, Sola (ENZV)
Time Latitude Longitude Altitude Speed Heading
2026-03-25 14:04 55.73754 9.13840 215 ft 0 kts 179°
2026-03-25 14:15 55.73757 9.13840 215 ft 2 kts 178°
2026-03-25 14:15 55.73768 9.13839 220 ft 3 kts 175°
2026-03-25 14:16 55.73788 9.13835 218 ft 3 kts 166°
2026-03-25 14:16 55.73807 9.13824 216 ft 3 kts 152°
2026-03-25 14:16 55.73823 9.13805 219 ft 3 kts 124°
2026-03-25 14:16 55.73829 9.13780 217 ft 1 kts 87°
2026-03-25 14:17 55.73829 9.13770 218 ft 0 kts 86°
2026-03-25 14:19 55.73829 9.13775 218 ft 2 kts 86°
2026-03-25 14:19 55.73831 9.13836 219 ft 8 kts 86°
2026-03-25 14:19 55.73836 9.13979 215 ft 14 kts 89°
2026-03-25 14:19 55.73847 9.14163 221 ft 16 kts 71°
2026-03-25 14:20 55.73908 9.14340 215 ft 18 kts 48°
2026-03-25 14:20 55.74006 9.14485 215 ft 19 kts 15°
2026-03-25 14:20 55.74134 9.14492 220 ft 18 kts
2026-03-25 14:20 55.74185 9.14646 215 ft 16 kts 86°
2026-03-25 14:21 55.74193 9.14876 220 ft 22 kts 86°
2026-03-25 14:21 55.74201 9.15181 215 ft 26 kts 88°
2026-03-25 14:21 55.74211 9.15508 215 ft 27 kts 87°
2026-03-25 14:21 55.74222 9.15843 218 ft 28 kts 86°
2026-03-25 14:22 55.74234 9.16189 215 ft 28 kts 86°
2026-03-25 14:22 55.74245 9.16544 215 ft 29 kts 87°
2026-03-25 14:22 55.74239 9.16868 215 ft 24 kts 126°
2026-03-25 14:22 55.74099 9.16894 218 ft 19 kts 213°
2026-03-25 14:23 55.74074 9.16654 215 ft 34 kts 267°
2026-03-25 14:23 55.73960 9.13811 1184 ft 156 kts 268°
2026-03-25 14:23 55.73947 9.11847 2390 ft 168 kts 283°
2026-03-25 14:24 55.74686 9.10027 2995 ft 203 kts 317°
2026-03-25 14:24 55.75909 9.08437 3725 ft 227 kts 320°
2026-03-25 14:24 55.77208 9.06843 5184 ft 226 kts 321°
2026-03-25 14:24 55.78520 9.05246 6570 ft 232 kts 321°
2026-03-25 14:25 55.79874 9.03597 7894 ft 239 kts 321°
2026-03-25 14:25 55.81261 9.01906 9234 ft 245 kts 320°
2026-03-25 14:25 55.82701 9.00146 10222 ft 262 kts 320°
2026-03-25 14:25 55.84303 8.98170 10579 ft 298 kts 321°
2026-03-25 14:26 55.86078 8.95986 11289 ft 317 kts 321°
2026-03-25 14:26 55.87917 8.93735 12395 ft 324 kts 321°
2026-03-25 14:26 55.89764 8.91475 13511 ft 329 kts 321°
2026-03-25 14:26 55.91669 8.89140 14531 ft 335 kts 321°
2026-03-25 14:27 55.93610 8.86755 15525 ft 342 kts 321°
2026-03-25 14:27 55.95584 8.84325 16537 ft 348 kts 321°
2026-03-25 14:27 55.97593 8.81846 17533 ft 353 kts 321°
2026-03-25 14:27 55.99632 8.79327 18428 ft 359 kts 321°
2026-03-25 14:28 56.01705 8.76762 19213 ft 366 kts 321°
2026-03-25 14:28 56.03818 8.74142 20066 ft 371 kts 321°
2026-03-25 14:28 56.05955 8.71490 20842 ft 378 kts 322°
2026-03-25 14:28 56.08133 8.68782 21590 ft 384 kts 322°
2026-03-25 14:29 56.10335 8.66042 22427 ft 388 kts 321°
2026-03-25 14:29 56.12564 8.63265 23125 ft 394 kts 322°
2026-03-25 14:29 56.14829 8.60436 23677 ft 399 kts 321°
2026-03-25 14:29 56.17118 8.57575 24285 ft 403 kts 321°
2026-03-25 14:30 56.19405 8.54713 25072 ft 402 kts 322°
2026-03-25 14:30 56.21717 8.51813 25543 ft 409 kts 322°
2026-03-25 14:30 56.24076 8.48849 25889 ft 419 kts 322°
2026-03-25 14:30 56.26490 8.45811 26203 ft 428 kts 322°
2026-03-25 14:31 56.28923 8.42747 26930 ft 427 kts 322°
2026-03-25 14:31 56.31336 8.39704 27365 ft 433 kts 322°
2026-03-25 14:31 56.33815 8.36571 27856 ft 436 kts 321°
2026-03-25 14:31 56.36352 8.33358 28182 ft 443 kts 321°
2026-03-25 14:32 56.38859 8.30177 28466 ft 451 kts 322°
2026-03-25 14:32 56.41480 8.26849 28838 ft 456 kts 321°
2026-03-25 14:32 56.44082 8.23542 29293 ft 459 kts 322°
2026-03-25 14:33 56.49456 8.17206 29351 ft 468 kts 330°
2026-03-25 14:33 56.55358 8.12394 29356 ft 463 kts 333°
2026-03-25 14:34 56.61249 8.07780 29364 ft 459 kts 334°
2026-03-25 14:34 56.67083 8.03110 29357 ft 456 kts 332°
2026-03-25 14:35 56.72862 7.98393 29346 ft 455 kts 333°
2026-03-25 14:35 56.78645 7.93633 29347 ft 457 kts 332°
2026-03-25 14:36 56.84440 7.88847 29317 ft 458 kts 332°
2026-03-25 14:36 56.90249 7.84035 29332 ft 459 kts 332°
2026-03-25 14:37 56.96073 7.79199 29317 ft 459 kts 332°
2026-03-25 14:37 57.01891 7.74349 29318 ft 459 kts 333°
2026-03-25 14:38 57.07705 7.69488 29306 ft 459 kts 332°
2026-03-25 14:38 57.13459 7.64660 29296 ft 451 kts 333°
2026-03-25 14:39 57.19207 7.59817 29300 ft 456 kts 333°
2026-03-25 14:39 57.24975 7.54942 29289 ft 456 kts 333°
2026-03-25 14:40 57.30746 7.50048 29274 ft 456 kts 333°
2026-03-25 14:40 57.36505 7.45149 29279 ft 454 kts 332°
2026-03-25 14:41 57.42232 7.40258 29260 ft 453 kts 333°
2026-03-25 14:41 57.47950 7.35358 29269 ft 452 kts 333°
2026-03-25 14:42 57.53614 7.30488 29242 ft 452 kts 333°
2026-03-25 14:42 57.59327 7.25558 29259 ft 453 kts 333°
2026-03-25 14:43 57.65044 7.20608 29237 ft 451 kts 333°
2026-03-25 14:43 57.70714 7.15682 29224 ft 451 kts 334°
2026-03-25 14:44 57.76416 7.10710 29222 ft 451 kts 333°
2026-03-25 14:44 57.82079 7.05756 29224 ft 449 kts 333°
2026-03-25 14:45 57.87767 7.00761 29209 ft 453 kts 333°
2026-03-25 14:45 57.93443 6.95762 29207 ft 449 kts 333°
2026-03-25 14:46 57.99116 6.90744 29187 ft 454 kts 333°
2026-03-25 14:46 58.04833 6.85672 29200 ft 452 kts 333°
2026-03-25 14:47 58.10389 6.80730 28477 ft 431 kts 333°
2026-03-25 14:47 58.13063 6.78344 27833 ft 418 kts 333°
2026-03-25 14:47 58.15703 6.75983 26572 ft 420 kts 334°
2026-03-25 14:47 58.18334 6.73623 25402 ft 417 kts 334°
2026-03-25 14:48 58.20946 6.71278 24267 ft 414 kts 334°
2026-03-25 14:48 58.23536 6.68950 23190 ft 409 kts 334°
2026-03-25 14:48 58.26078 6.66662 22261 ft 400 kts 334°
2026-03-25 14:48 58.28552 6.64432 21320 ft 389 kts 334°
2026-03-25 14:49 58.30961 6.62258 20606 ft 375 kts 334°
2026-03-25 14:49 58.33230 6.60206 19960 ft 361 kts 334°
2026-03-25 14:49 58.35490 6.58159 19114 ft 357 kts 334°
2026-03-25 14:49 58.37729 6.56129 18123 ft 357 kts 334°
2026-03-25 14:50 58.39956 6.54107 17401 ft 350 kts 334°
2026-03-25 14:50 58.42133 6.52125 16568 ft 344 kts 334°
2026-03-25 14:50 58.44257 6.50157 15782 ft 336 kts 333°
2026-03-25 14:50 58.46344 6.48206 14908 ft 334 kts 333°
2026-03-25 14:51 58.48412 6.46267 14131 ft 329 kts 333°
2026-03-25 14:51 58.50468 6.44338 13192 ft 330 kts 333°
2026-03-25 14:51 58.52506 6.42425 12444 ft 323 kts 333°
2026-03-25 14:51 58.54509 6.40544 11577 ft 319 kts 333°
2026-03-25 14:52 58.56443 6.38728 11284 ft 296 kts 333°
2026-03-25 14:52 58.58211 6.37066 11080 ft 270 kts 333°
2026-03-25 14:52 58.59825 6.35547 10941 ft 248 kts 333°
2026-03-25 14:52 58.61319 6.34138 10703 ft 233 kts 333°
2026-03-25 14:53 58.62763 6.32775 10332 ft 227 kts 332°
2026-03-25 14:53 58.64158 6.31459 9784 ft 223 kts 332°
2026-03-25 14:53 58.65555 6.30136 9126 ft 224 kts 333°
2026-03-25 14:53 58.66945 6.28819 8324 ft 220 kts 333°
2026-03-25 14:54 58.68278 6.27559 8080 ft 208 kts 333°
2026-03-25 14:54 58.69553 6.26292 7991 ft 213 kts 327°
2026-03-25 14:54 58.70546 6.24151 7996 ft 218 kts 306°
2026-03-25 14:54 58.71096 6.21399 7815 ft 225 kts 288°
2026-03-25 14:55 58.71162 6.18354 7641 ft 227 kts 279°
2026-03-25 14:55 58.71139 6.15337 7484 ft 224 kts 279°
2026-03-25 14:55 58.70932 6.12328 7290 ft 238 kts 259°
2026-03-25 14:55 58.69956 6.09626 7210 ft 259 kts 234°
2026-03-25 14:56 58.68319 6.07894 6969 ft 284 kts 204°
2026-03-25 14:56 58.66372 6.07211 6743 ft 283 kts 196°
2026-03-25 14:56 58.64532 6.06293 6516 ft 261 kts 218°
2026-03-25 14:56 58.62995 6.04558 6426 ft 260 kts 221°
2026-03-25 14:57 58.61412 6.02784 6228 ft 266 kts 220°
2026-03-25 14:57 58.59910 6.00834 6038 ft 251 kts 236°
2026-03-25 14:57 58.58806 5.98357 5870 ft 241 kts 243°
2026-03-25 14:57 58.57737 5.95902 5689 ft 238 kts 243°
2026-03-25 14:58 58.56702 5.93496 5537 ft 230 kts 248°
2026-03-25 14:58 58.56082 5.90801 5409 ft 218 kts 265°
2026-03-25 14:58 58.55600 5.88011 5231 ft 221 kts 265°
2026-03-25 14:58 58.55444 5.85255 5056 ft 198 kts 290°
2026-03-25 14:59 58.55954 5.82954 4928 ft 183 kts 310°
2026-03-25 14:59 58.56839 5.81297 4798 ft 177 kts 326°
2026-03-25 14:59 58.57938 5.80350 4659 ft 173 kts 344°
2026-03-25 14:59 58.59116 5.80024 4542 ft 171 kts 347°
2026-03-25 15:00 58.60286 5.79700 4429 ft 172 kts 347°
2026-03-25 15:00 58.61468 5.79378 4314 ft 172 kts 347°
2026-03-25 15:00 58.62659 5.79059 4194 ft 173 kts 347°
2026-03-25 15:00 58.63860 5.78740 4066 ft 174 kts 347°
2026-03-25 15:01 58.65045 5.78427 3943 ft 170 kts 347°
2026-03-25 15:01 58.66211 5.78121 3825 ft 169 kts 347°
2026-03-25 15:01 58.67375 5.77816 3712 ft 166 kts 347°
2026-03-25 15:01 58.68136 5.77617 3637 ft 161 kts 347°
2026-03-25 15:02 58.69569 5.77227 3478 ft 151 kts 343°
2026-03-25 15:02 58.70207 5.76678 3418 ft 150 kts 326°
2026-03-25 15:02 58.70980 5.75331 3320 ft 150 kts 313°
2026-03-25 15:02 58.71405 5.73545 3214 ft 144 kts 299°
2026-03-25 15:03 58.71733 5.71794 3121 ft 140 kts 300°
2026-03-25 15:03 58.72066 5.70028 3007 ft 139 kts 300°
2026-03-25 15:03 58.72394 5.68266 2933 ft 141 kts 300°
2026-03-25 15:03 58.72731 5.66490 2823 ft 139 kts 303°
2026-03-25 15:04 58.73382 5.65386 2780 ft 126 kts 340°
2026-03-25 15:04 58.74211 5.64915 2621 ft 122 kts 338°
2026-03-25 15:04 58.75060 5.64584 2469 ft 123 kts 344°
2026-03-25 15:04 58.75864 5.64374 2337 ft 113 kts 343°
2026-03-25 15:05 58.76660 5.64207 2148 ft 115 kts 346°
2026-03-25 15:05 58.77433 5.64128 1993 ft 109 kts 347°
2026-03-25 15:05 58.78181 5.64084 1835 ft 104 kts 347°
2026-03-25 15:05 58.78879 5.64057 1697 ft 99 kts 347°
2026-03-25 15:06 58.79558 5.64031 1567 ft 96 kts 346°
2026-03-25 15:06 58.80220 5.64010 1439 ft 96 kts 346°
2026-03-25 15:06 58.80898 5.63987 1287 ft 99 kts 346°
2026-03-25 15:06 58.81550 5.63974 1174 ft 91 kts 345°
2026-03-25 15:07 58.82174 5.63950 1050 ft 91 kts 346°
2026-03-25 15:07 58.82807 5.63933 921 ft 87 kts 343°
2026-03-25 15:07 58.83386 5.63912 798 ft 85 kts 345°
2026-03-25 15:07 58.83992 5.63895 702 ft 87 kts 343°
2026-03-25 15:08 58.84579 5.63879 578 ft 80 kts 340°
2026-03-25 15:08 58.85122 5.63861 450 ft 78 kts 344°
2026-03-25 15:08 58.85696 5.63840 368 ft 88 kts 342°
2026-03-25 15:08 58.86336 5.63822 246 ft 96 kts 347°
2026-03-25 15:09 58.86981 5.63806 107 ft 90 kts 346°
2026-03-25 15:09 58.87548 5.63789 45 ft 73 kts 342°
2026-03-25 15:09 58.87853 5.63697 32 ft 11 kts 336°
2026-03-25 15:09 58.87873 5.63656 32 ft 8 kts 291°
2026-03-25 15:10 58.87899 5.63568 32 ft 8 kts 322°
2026-03-25 15:10 58.87944 5.63507 31 ft 8 kts 327°
2026-03-25 15:10 58.87993 5.63454 29 ft 8 kts 337°
2026-03-25 15:10 58.88052 5.63435 30 ft 8 kts 352°
2026-03-25 15:11 58.88109 5.63423 30 ft 8 kts 359°
2026-03-25 15:11 58.88164 5.63412 30 ft 8 kts 354°
2026-03-25 15:11 58.88215 5.63406 30 ft 7 kts 354°
2026-03-25 15:11 58.88258 5.63379 30 ft 6 kts 329°
2026-03-25 15:12 58.88293 5.63339 31 ft 6 kts 330°
2026-03-25 15:12 58.88328 5.63304 29 ft 6 kts 334°
2026-03-25 15:12 58.88366 5.63294 30 ft 6 kts 354°
2026-03-25 15:12 58.88400 5.63264 28 ft 5 kts 341°
2026-03-25 15:13 58.88437 5.63257 28 ft 5 kts 358°
2026-03-25 15:13 58.88473 5.63248 27 ft 5 kts 353°
2026-03-25 15:13 58.88505 5.63273 28 ft 5 kts 41°
2026-03-25 15:13 58.88536 5.63292 29 ft 5 kts 350°
2026-03-25 15:14 58.88537 5.63292 29 ft 0 kts 348°